Precipitable_Water
1.15 1.19 1.25 1.23 1.28 1.33 1.38 1.38 1.37 1.32 1.40 1.32 1.26 1.24 1.25 1.25 1.26 1.26 1.24 1.14 1.16 1.15 1.19 1.17 1.17 1.11 1.02 0.99 1.00 1.03 1.08 1.13 1.18 1.17 1.13 1.14 1.08 1.14 0.97 0.98 0.98 1.00 1.03 0.99 0.97 0.96 0.95 0.92 0.89 0.86 0.81 0.76 0.74 0.73 0.71 0.74 0.71 0.68 0.69 0.71 0.75 0.77 0.75 0.69 0.65 0.65 0.64 0.61 0.60 0.61 0.61 0.61 0.60 0.56 0.55 0.53 0.53 0.54 0.54 0.53 0.52 0.52 0.53 0.54 0.55
1.26 1.28 1.24 1.23 1.27 1.37 1.39 1.42 1.39 1.39 1.40 1.32 1.30 1.32 1.33 1.32 1.28 1.29 1.33 1.30 1.17 1.12 1.17 1.19 1.20 1.19 1.11 1.01 1.01 1.04 1.08 1.11 1.12 1.14 1.13 1.12 1.10 1.22 0.98 0.98 1.01 0.98 0.99 1.02 1.02 1.02 0.99 0.95 0.92 0.91 0.84 0.80 0.76 0.72 0.70 0.72 0.70 0.70 0.70 0.70 0.75 0.78 0.79 0.72 0.67 0.65 0.62 0.61 0.59 0.58 0.58 0.58 0.58 0.58 0.58 0.56 0.55 0.55 0.56 0.56 0.52 0.50 0.51 0.52 0.52
1.30 1.28 1.24 1.27 1.30 1.39 1.43 1.44 1.42 1.42 1.43 1.40 1.43 1.38 1.37 1.32 1.30 1.28 1.28 1.28 1.26 1.26 1.20 1.19 1.20 1.19 1.18 1.09 1.03 1.03 1.08 1.12 1.10 1.11 1.10 1.10 1.08 1.16 1.17 0.99 0.98 1.02 0.99 0.99 1.03 1.04 1.04 0.99 0.99 0.93 0.91 0.86 0.82 0.78 0.69 0.70 0.70 0.66 0.69 0.71 0.73 0.76 0.79 0.79 0.71 0.68 0.63 0.62 0.61 0.60 0.59 0.59 0.59 0.59 0.58 0.56 0.56 0.55 0.56 0.56 0.54 0.53 0.51 0.50 0.51
1.27 1.25 1.26 1.25 1.30 1.34 1.40 1.40 1.47 1.45 1.43 1.39 1.42 1.40 1.37 1.34 1.28 1.31 1.30 1.31 1.35 1.34 1.30 1.26 1.20 1.17 1.18 1.15 1.12 1.07 1.06 1.09 1.10 1.11 1.07 1.07 1.11 1.10 1.15 1.14 1.04 1.00 1.00 1.00 0.99 1.02 1.07 1.06 1.00 0.98 0.95 0.91 0.87 0.83 0.76 0.66 0.71 0.71 0.68 0.73 0.72 0.73 0.75 0.81 0.76 0.69 0.67 0.64 0.62 0.61 0.61 0.59 0.59 0.59 0.59 0.57 0.55 0.53 0.53 0.54 0.54 0.53 0.53 0.51 0.50
1.22 1.24 1.28 1.25 1.26 1.28 1.36 1.44 1.50 1.47 1.47 1.40 1.41 1.45 1.37 1.33 1.31 1.34 1.37 1.39 1.36 1.33 1.27 1.24 1.24 1.22 1.21 1.19 1.16 1.11 1.08 1.08 1.11 1.12 1.07 1.03 1.03 1.11 1.12 1.14 1.16 1.07 1.01 0.98 0.99 0.99 1.01 1.06 1.03 1.02 0.99 0.96 0.92 0.88 0.81 0.75 0.72 0.69 0.69 0.72 0.75 0.70 0.72 0.75 0.80 0.74 0.70 0.65 0.62 0.61 0.60 0.61 0.60 0.57 0.57 0.56 0.54 0.54 0.53 0.54 0.54 0.54 0.53 0.50 0.49
1.23 1.25 1.23 1.21 1.20 1.20 1.31 1.38 1.48 1.49 1.48 1.42 1.36 1.40 1.33 1.33 1.31 1.32 1.34 1.37 1.36 1.37 1.29 1.23 1.23 1.28 1.23 1.20 1.18 1.15 1.13 1.08 1.10 1.13 1.12 1.05 1.04 1.07 1.09 1.10 1.11 1.18 1.17 1.07 0.99 0.97 0.98 1.01 1.05 1.06 1.05 0.99 0.96 0.95 0.91 0.88 0.85 0.82 0.72 0.71 0.73 0.70 0.71 0.73 0.79 0.81 0.73 0.70 0.64 0.62 0.61 0.60 0.59 0.60 0.58 0.56 0.52 0.51 0.51 0.52 0.53 0.53 0.53 0.52 0.48
1.20 1.19 1.19 1.17 1.15 1.20 1.26 1.34 1.44 1.47 1.47 1.41 1.34 1.35 1.31 1.34 1.35 1.26 1.32 1.31 1.31 1.32 1.38 1.35 1.33 1.30 1.29 1.23 1.15 1.17 1.16 1.09 1.09 1.11 1.10 1.07 1.05 1.07 1.09 1.09 1.14 1.14 1.16 1.23 1.13 1.06 0.98 0.97 1.00 1.04 1.06 1.04 0.98 0.96 0.95 0.93 0.90 0.88 0.76 0.73 0.69 0.67 0.67 0.71 0.75 0.83 0.80 0.73 0.67 0.63 0.62 0.60 0.60 0.59 0.56 0.55 0.53 0.50 0.50 0.50 0.51 0.52 0.52 0.52 0.52
1.22 1.22 1.17 1.17 1.18 1.22 1.27 1.35 1.41 1.39 1.37 1.39 1.37 1.31 1.34 1.38 1.31 1.31 1.26 1.24 1.28 1.31 1.38 1.42 1.43 1.40 1.36 1.32 1.19 1.16 1.15 1.10 1.05 1.04 1.05 1.04 0.99 1.00 1.06 1.07 1.08 1.11 1.13 1.13 1.23 1.25 1.11 1.02 0.99 0.99 1.03 1.05 1.02 0.99 0.99 0.97 0.94 0.91 0.87 0.83 0.77 0.69 0.60 0.64 0.70 0.78 0.81 0.75 0.69 0.65 0.63 0.61 0.60 0.59 0.58 0.55 0.54 0.52 0.52 0.51 0.50 0.49 0.51 0.51 0.51
1.21 1.22 1.17 1.18 1.21 1.25 1.34 1.39 1.39 1.38 1.40 1.38 1.34 1.37 1.34 1.35 1.32 1.31 1.31 1.27 1.24 1.28 1.37 1.44 1.44 1.43 1.44 1.47 1.33 1.20 1.10 1.10 1.07 1.03 1.01 0.99 0.98 0.96 0.99 1.00 1.04 1.07 1.11 1.10 1.11 1.19 1.20 1.11 1.04 1.00 1.01 1.04 1.05 1.03 1.01 1.01 0.98 0.95 0.94 0.87 0.87 0.82 0.74 0.62 0.64 0.70 0.79 0.81 0.78 0.72 0.67 0.64 0.61 0.61 0.59 0.57 0.55 0.54 0.53 0.53 0.51 0.50 0.50 0.50 0.49
1.19 1.21 1.22 1.23 1.26 1.29 1.36 1.42 1.44 1.43 1.42 1.37 1.38 1.38 1.36 1.34 1.27 1.26 1.27 1.22 1.16 1.19 1.26 1.38 1.40 1.41 1.44 1.42 1.43 1.35 1.20 1.11 1.09 1.08 1.01 0.97 0.93 0.90 0.96 1.02 1.03 1.05 1.08 1.10 1.10 1.11 1.21 1.20 1.14 1.08 1.01 1.00 1.04 1.04 1.03 1.02 1.02 1.02 0.99 0.93 0.90 0.89 0.86 0.81 0.72 0.70 0.77 0.84 0.84 0.81 0.76 0.72 0.68 0.64 0.62 0.59 0.57 0.56 0.53 0.52 0.51 0.51 0.51 0.50 0.48
1.15 1.20 1.21 1.23 1.26 1.29 1.33 1.44 1.49 1.44 1.42 1.40 1.38 1.34 1.36 1.38 1.32 1.27 1.35 1.34 1.27 1.25 1.25 1.31 1.35 1.37 1.37 1.40 1.41 1.38 1.33 1.26 1.17 1.10 1.04 1.00 0.98 0.96 0.97 1.01 1.01 1.04 1.07 1.06 1.05 1.06 1.10 1.18 1.22 1.18 1.13 1.03 1.00 1.02 1.03 1.02 1.01 1.03 1.01 0.99 0.96 0.93 0.92 0.90 0.85 0.75 0.73 0.78 0.84 0.86 0.85 0.80 0.73 0.68 0.64 0.62 0.60 0.58 0.57 0.53 0.51 0.51 0.51 0.51 0.50
0.99 1.03 1.09 1.14 1.17 1.20 1.26 1.45 1.48 1.42 1.37 1.34 1.32 1.33 1.35 1.37 1.39 1.36 1.35 1.34 1.35 1.35 1.35 1.31 1.31 1.28 1.29 1.34 1.39 1.41 1.38 1.34 1.26 1.17 1.11 1.06 1.06 1.06 1.00 1.00 1.01 1.00 1.00 1.03 1.05 1.06 1.04 1.05 1.08 1.12 1.16 1.18 1.10 1.05 1.02 1.00 1.00 0.99 1.00 0.99 0.98 0.96 0.93 0.91 0.90 0.86 0.77 0.75 0.80 0.84 0.87 0.89 0.83 0.75 0.68 0.64 0.62 0.61 0.59 0.56 0.53 0.51 0.51 0.51 0.50
0.78 0.82 0.85 0.92 1.00 1.13 1.16 1.24 1.33 1.38 1.37 1.38 1.38 1.36 1.36 1.37 1.36 1.36 1.30 1.25 1.27 1.34 1.37 1.39 1.29 1.23 1.27 1.26 1.27 1.33 1.34 1.34 1.27 1.20 1.12 1.12 1.13 1.09 1.15 1.09 1.06 1.04 1.02 1.00 1.00 1.01 1.04 1.02 1.00 1.00 1.01 1.06 1.14 1.07 1.04 1.00 0.95 0.94 0.95 0.96 0.95 0.95 0.94 0.92 0.91 0.90 0.87 0.80 0.79 0.80 0.82 0.87 0.89 0.81 0.70 0.64 0.62 0.62 0.62 0.59 0.56 0.53 0.51 0.51 0.50
0.71 0.73 0.74 0.77 0.78 0.88 1.01 1.10 1.20 1.24 1.27 1.30 1.29 1.32 1.37 1.35 1.32 1.29 1.33 1.23 1.18 1.26 1.30 1.28 1.17 1.09 1.05 1.09 1.16 1.26 1.25 1.29 1.31 1.33 1.22 1.21 1.18 1.12 1.10 1.09 1.11 1.12 1.10 1.05 0.99 0.95 0.98 1.01 1.01 1.01 1.00 0.95 0.96 1.09 1.08 1.06 1.01 0.93 0.92 0.94 0.93 0.93 0.94 0.93 0.92 0.92 0.94 0.92 0.86 0.86 0.82 0.81 0.86 0.83 0.75 0.65 0.61 0.61 0.62 0.61 0.59 0.55 0.53 0.52 0.51
0.66 0.67 0.69 0.70 0.71 0.72 0.77 0.88 0.92 1.02 1.04 1.10 1.16 1.19 1.25 1.25 1.26 1.23 1.21 1.20 1.19 1.24 1.24 1.23 1.10 1.13 1.14 1.06 1.01 1.03 1.17 1.18 1.23 1.30 1.27 1.17 1.12 1.07 1.09 1.05 1.02 1.09 1.13 1.12 1.08 1.02 1.00 1.02 1.02 1.03 1.03 1.01 0.96 0.92 0.99 1.11 1.11 0.98 0.91 0.94 0.95 0.95 0.93 0.94 0.95 0.96 0.99 0.98 0.94 0.93 0.93 0.87 0.83 0.84 0.79 0.73 0.66 0.61 0.59 0.61 0.60 0.58 0.55 0.53 0.52
0.68 0.69 0.69 0.70 0.73 0.74 0.74 0.74 0.80 0.87 0.89 0.90 0.90 0.90 0.99 1.05 1.11 1.11 1.10 1.03 1.06 1.10 1.27 1.27 1.22 1.11 0.95 0.97 1.03 1.02 0.91 0.97 1.08 1.19 1.20 1.15 1.20 1.21 1.17 1.13 1.12 1.09 1.12 1.15 1.14 1.11 1.11 1.13 1.09 1.08 1.08 1.06 1.02 0.97 0.91 0.89 0.94 0.92 0.87 0.90 0.93 0.95 0.95 0.94 0.93 0.95 0.98 0.98 1.02 1.04 1.03 0.97 0.91 0.89 0.85 0.81 0.75 0.67 0.60 0.58 0.59 0.59 0.57 0.55 0.53
0.65 0.65 0.66 0.65 0.70 0.72 0.70 0.69 0.68 0.71 0.74 0.73 0.75 0.75 0.79 0.87 0.94 0.97 1.00 0.98 0.92 0.97 1.14 1.24 1.26 1.28 1.09 1.01 0.96 0.91 0.91 1.00 1.02 1.01 1.11 1.16 1.21 1.25 1.28 1.16 1.14 1.15 1.13 1.14 1.15 1.14 1.15 1.17 1.16 1.16 1.13 1.10 1.08 1.05 0.99 0.93 0.89 0.94 0.94 0.90 0.89 0.91 0.93 0.95 0.97 0.96 0.97 0.99 1.02 1.01 1.02 1.01 1.00 0.95 0.88 0.87 0.85 0.81 0.71 0.63 0.59 0.59 0.57 0.56 0.54
0.69 0.68 0.67 0.68 0.69 0.69 0.69 0.65 0.62 0.62 0.62 0.65 0.66 0.66 0.64 0.70 0.83 0.91 0.94 1.01 0.95 0.92 0.94 1.12 1.29 1.30 1.24 1.17 1.10 0.93 0.93 1.11 1.06 0.88 1.16 1.17 1.17 1.25 1.30 1.29 1.26 1.19 1.17 1.18 1.16 1.17 1.19 1.19 1.19 1.18 1.18 1.16 1.14 1.12 1.07 0.99 0.94 0.94 0.99 1.05 1.00 0.97 0.97 0.99 1.01 1.02 1.02 1.02 1.03 1.08 1.08 1.06 1.03 1.00 0.92 0.87 0.86 0.85 0.83 0.76 0.69 0.65 0.61 0.57 0.55
0.69 0.69 0.68 0.69 0.68 0.67 0.63 0.61 0.57 0.55 0.55 0.57 0.55 0.57 0.58 0.61 0.70 0.74 0.77 0.81 0.80 0.74 0.82 0.91 1.11 1.21 1.24 1.20 1.22 1.15 1.14 1.05 0.96 1.01 0.92 1.12 1.14 1.15 1.22 1.31 1.35 1.28 1.22 1.21 1.23 1.21 1.22 1.23 1.22 1.22 1.22 1.20 1.19 1.16 1.13 1.11 1.06 0.99 0.95 0.96 0.99 0.99 1.01 1.02 1.03 1.02 1.04 1.05 1.03 1.09 1.11 1.12 1.10 1.07 1.01 0.91 0.86 0.87 0.88 0.88 0.84 0.77 0.72 0.66 0.61
0.64 0.67 0.69 0.67 0.66 0.63 0.60 0.56 0.53 0.51 0.52 0.50 0.51 0.52 0.54 0.57 0.61 0.62 0.65 0.66 0.70 0.77 0.82 0.88 0.98 1.05 1.04 1.08 1.10 1.12 1.18 1.16 1.08 0.97 0.94 0.90 0.98 1.15 1.22 1.27 1.29 1.29 1.32 1.33 1.30 1.27 1.27 1.28 1.26 1.26 1.27 1.29 1.28 1.26 1.26 1.26 1.24 1.19 1.12 1.04 1.04 1.09 1.12 1.13 1.11 1.10 1.09 1.10 1.10 1.07 1.11 1.09 1.07 1.06 1.05 1.00 0.92 0.89 0.90 0.91 0.92 0.91 0.82 0.75 0.71
0.57 0.60 0.60 0.54 0.49 0.47 0.46 0.45 0.44 0.42 0.41 0.41 0.43 0.46 0.49 0.50 0.53 0.54 0.54 0.55 0.57 0.62 0.66 0.70 0.73 0.78 0.81 0.82 0.83 0.92 1.02 0.94 0.94 0.99 0.93 0.88 0.92 0.92 1.01 1.20 1.22 1.24 1.32 1.35 1.35 1.35 1.32 1.32 1.33 1.31 1.32 1.36 1.33 1.32 1.31 1.32 1.35 1.36 1.33 1.28 1.24 1.23 1.23 1.22 1.21 1.18 1.16 1.15 1.16 1.15 1.11 1.22 1.22 1.21 1.13 1.10 1.06 0.99 0.93 0.92 0.95 0.96 0.93 0.84 0.78
0.54 0.55 0.51 0.50 0.49 0.48 0.46 0.44 0.42 0.41 0.40 0.40 0.40 0.41 0.43 0.45 0.47 0.48 0.49 0.48 0.50 0.50 0.49 0.48 0.49 0.53 0.55 0.56 0.58 0.60 0.65 0.76 0.83 0.81 0.84 0.88 0.80 0.85 0.91 0.92 0.94 1.09 1.17 1.11 1.12 1.24 1.31 1.35 1.36 1.33 1.33 1.37 1.39 1.39 1.39 1.38 1.39 1.40 1.41 1.36 1.33 1.33 1.33 1.32 1.31 1.30 1.28 1.25 1.22 1.19 1.15 1.20 1.27 1.26 1.26 1.20 1.15 1.12 1.06 0.98 0.96 0.99 1.00 0.94 0.86
0.51 0.51 0.49 0.49 0.49 0.48 0.46 0.45 0.44 0.43 0.42 0.42 0.42 0.41 0.42 0.42 0.43 0.45 0.45 0.45 0.45 0.44 0.43 0.44 0.45 0.44 0.44 0.45 0.44 0.47 0.47 0.46 0.50 0.52 0.51 0.50 0.52 0.55 0.67 0.74 0.73 0.73 0.87 1.07 1.17 1.13 1.08 1.09 1.15 1.21 1.31 1.37 1.40 1.42 1.43 1.45 1.46 1.43 1.43 1.41 1.38 1.38 1.37 1.36 1.35 1.35 1.34 1.33 1.31 1.30 1.26 1.23 1.26 1.30 1.32 1.31 1.26 1.22 1.18 1.15 1.07 1.01 1.03 1.03 0.96
0.52 0.50 0.48 0.48 0.49 0.48 0.47 0.46 0.45 0.44 0.43 0.44 0.44 0.43 0.43 0.44 0.45 0.45 0.44 0.44 0.44 0.43 0.42 0.41 0.43 0.43 0.42 0.43 0.41 0.42 0.44 0.42 0.45 0.44 0.42 0.43 0.43 0.43 0.44 0.54 0.62 0.66 0.72 0.82 0.98 1.02 0.98 0.95 1.06 1.16 1.19 1.22 1.34 1.42 1.43 1.41 1.42 1.42 1.43 1.44 1.43 1.42 1.41 1.39 1.39 1.38 1.38 1.38 1.38 1.37 1.35 1.31 1.31 1.31 1.35 1.41 1.40 1.36 1.33 1.29 1.28 1.24 1.16 1.10 1.10
0.53 0.52 0.50 0.49 0.50 0.50 0.49 0.46 0.44 0.43 0.43 0.42 0.42 0.43 0.44 0.44 0.44 0.43 0.45 0.44 0.44 0.44 0.41 0.39 0.39 0.41 0.41 0.43 0.43 0.44 0.44 0.45 0.46 0.46 0.48 0.48 0.48 0.45 0.50 0.54 0.53 0.56 0.60 0.65 0.67 0.77 0.87 0.93 0.97 1.01 1.09 1.18 1.22 1.27 1.36 1.40 1.38 1.42 1.35 1.37 1.39 1.41 1.41 1.39 1.39 1.39 1.39 1.41 1.43 1.43 1.41 1.39 1.38 1.38 1.38 1.40 1.45 1.46 1.44 1.42 1.40 1.37 1.33 1.27 1.20
0.55 0.55 0.52 0.51 0.54 0.54 0.51 0.48 0.46 0.45 0.44 0.44 0.44 0.44 0.45 0.44 0.44 0.44 0.43 0.43 0.43 0.42 0.41 0.40 0.39 0.38 0.39 0.39 0.40 0.41 0.43 0.45 0.45 0.46 0.46 0.45 0.45 0.46 0.45 0.45 0.48 0.47 0.51 0.53 0.61 0.61 0.72 0.85 0.92 0.94 0.94 0.98 1.01 1.08 1.16 1.15 1.22 1.31 1.31 1.32 1.34 1.34 1.34 1.35 1.37 1.37 1.35 1.36 1.39 1.42 1.45 1.45 1.44 1.44 1.45 1.45 1.44 1.47 1.48 1.49 1.50 1.47 1.42 1.37 1.30
0.61 0.62 0.57 0.54 0.56 0.56 0.54 0.52 0.50 0.48 0.46 0.45 0.44 0.43 0.43 0.43 0.44 0.44 0.44 0.45 0.44 0.43 0.42 0.40 0.38 0.37 0.35 0.36 0.36 0.38 0.38 0.41 0.43 0.42 0.43 0.44 0.43 0.44 0.42 0.36 0.37 0.43 0.44 0.51 0.55 0.59 0.62 0.67 0.69 0.71 0.81 0.91 0.96 0.96 0.98 1.04 1.09 1.19 1.17 1.19 1.22 1.23 1.24 1.26 1.29 1.30 1.32 1.31 1.31 1.34 1.39 1.44 1.46 1.45 1.45 1.46 1.49 1.48 1.49 1.52 1.53 1.54 1.52 1.45 1.38
0.62 0.67 0.61 0.61 0.58 0.57 0.56 0.56 0.53 0.52 0.49 0.48 0.47 0.46 0.45 0.45 0.45 0.45 0.43 0.45 0.44 0.44 0.45 0.43 0.39 0.37 0.36 0.34 0.36 0.35 0.35 0.36 0.37 0.39 0.39 0.42 0.40 0.42 0.42 0.40 0.34 0.30 0.37 0.38 0.44 0.52 0.66 0.63 0.69 0.70 0.72 0.78 0.83 0.86 0.86 0.79 0.80 0.92 0.85 0.86 0.91 0.99 1.08 1.12 1.16 1.19 1.23 1.24 1.24 1.26 1.31 1.38 1.42 1.45 1.46 1.46 1.47 1.51 1.53 1.52 1.52 1.54 1.53 1.47 1.40
0.63 0.67 0.63 0.65 0.63 0.62 0.60 0.58 0.55 0.53 0.51 0.49 0.47 0.46 0.45 0.45 0.44 0.43 0.43 0.45 0.46 0.43 0.43 0.43 0.42 0.42 0.39 0.35 0.36 0.37 0.39 0.36 0.36 0.38 0.41 0.40 0.41 0.41 0.41 0.37 0.37 0.32 0.29 0.30 0.34 0.39 0.50 0.66 0.60 0.66 0.69 0.68 0.73 0.80 0.79 0.84 0.94 0.93 0.90 0.89 0.91 0.93 0.98 0.99 0.97 1.00 1.04 1.11 1.15 1.18 1.22 1.29 1.35 1.39 1.42 1.45 1.47 1.48 1.52 1.55 1.55 1.54 1.55 1.53 1.46
0.67 0.65 0.68 0.67 0.66 0.65 0.65 0.62 0.59 0.56 0.53 0.51 0.49 0.48 0.48 0.46 0.45 0.45 0.44 0.44 0.44 0.43 0.42 0.42 0.39 0.40 0.36 0.37 0.35 0.39 0.39 0.38 0.38 0.37 0.38 0.40 0.39 0.41 0.40 0.41 0.41 0.34 0.33 0.29 0.30 0.37 0.37 0.46 0.57 0.63 0.78 0.81 0.83 0.76 0.75 0.75 0.80 0.70 0.70 0.72 0.75 0.79 0.86 0.87 0.88 0.86 0.89 0.93 0.98 1.03 1.09 1.16 1.23 1.30 1.36 1.40 1.42 1.43 1.46 1.50 1.54 1.54 1.56 1.56 1.52
0.67 0.67 0.69 0.70 0.70 0.68 0.68 0.66 0.64 0.60 0.58 0.54 0.52 0.51 0.50 0.47 0.46 0.45 0.45 0.45 0.43 0.42 0.40 0.39 0.38 0.38 0.35 0.36 0.34 0.37 0.36 0.38 0.39 0.40 0.40 0.39 0.40 0.39 0.40 0.39 0.39 0.39 0.36 0.35 0.29 0.37 0.46 0.41 0.45 0.58 0.60 0.62 0.60 0.60 0.60 0.60 0.60 0.59 0.57 0.58 0.63 0.74 0.74 0.76 0.76 0.73 0.72 0.75 0.80 0.87 0.93 0.98 1.06 1.15 1.23 1.29 1.33 1.36 1.38 1.39 1.43 1.47 1.53 1.54 1.54
0.67 0.68 0.69 0.72 0.73 0.72 0.71 0.70 0.67 0.65 0.62 0.60 0.58 0.56 0.53 0.51 0.49 0.47 0.44 0.44 0.43 0.42 0.42 0.41 0.38 0.39 0.37 0.36 0.35 0.33 0.34 0.35 0.40 0.39 0.37 0.38 0.36 0.36 0.38 0.39 0.38 0.38 0.37 0.34 0.31 0.31 0.40 0.41 0.44 0.46 0.47 0.52 0.57 0.54 0.53 0.55 0.61 0.61 0.61 0.63 0.66 0.65 0.63 0.64 0.66 0.69 0.75 0.74 0.76 0.78 0.82 0.87 0.93 1.00 1.08 1.17 1.23 1.26 1.30 1.33 1.36 1.38 1.42 1.49 1.51
0.70 0.69 0.70 0.72 0.75 0.76 0.74 0.73 0.71 0.68 0.66 0.64 0.63 0.61 0.59 0.56 0.53 0.49 0.47 0.45 0.44 0.43 0.42 0.43 0.42 0.39 0.36 0.35 0.36 0.36 0.37 0.35 0.37 0.37 0.39 0.37 0.39 0.39 0.38 0.37 0.36 0.38 0.37 0.34 0.31 0.32 0.39 0.46 0.45 0.44 0.47 0.48 0.45 0.49 0.48 0.52 0.56 0.62 0.64 0.65 0.65 0.65 0.64 0.65 0.71 0.78 0.80 0.83 0.83 0.81 0.80 0.81 0.82 0.86 0.94 1.03 1.11 1.18 1.22 1.25 1.27 1.29 1.32 1.37 1.45
0.75 0.73 0.70 0.73 0.75 0.76 0.77 0.76 0.74 0.72 0.70 0.68 0.66 0.66 0.63 0.59 0.56 0.55 0.51 0.47 0.45 0.44 0.44 0.41 0.42 0.41 0.40 0.37 0.35 0.35 0.34 0.32 0.35 0.36 0.38 0.37 0.36 0.37 0.38 0.38 0.34 0.34 0.38 0.33 0.32 0.31 0.30 0.38 0.39 0.44 0.43 0.45 0.41 0.49 0.47 0.49 0.51 0.53 0.52 0.56 0.60 0.60 0.59 0.62 0.68 0.74 0.83 0.84 0.85 0.85 0.84 0.83 0.82 0.82 0.84 0.88 0.96 1.02 1.08 1.14 1.17 1.18 1.19 1.22 1.29
0.78 0.78 0.75 0.76 0.76 0.76 0.78 0.78 0.77 0.74 0.71 0.70 0.68 0.68 0.67 0.65 0.61 0.59 0.57 0.54 0.50 0.47 0.45 0.44 0.42 0.42 0.41 0.38 0.37 0.36 0.36 0.34 0.34 0.37 0.36 0.38 0.37 0.35 0.36 0.36 0.36 0.37 0.36 0.34 0.30 0.27 0.28 0.30 0.35 0.34 0.38 0.42 0.42 0.40 0.43 0.45 0.46 0.46 0.44 0.45 0.47 0.51 0.55 0.56 0.60 0.66 0.73 0.72 0.73 0.76 0.78 0.79 0.79 0.80 0.82 0.84 0.87 0.91 0.95 0.98 1.02 1.05 1.06 1.09 1.13
0.79 0.81 0.80 0.81 0.78 0.77 0.79 0.79 0.78 0.75 0.74 0.73 0.71 0.70 0.68 0.68 0.66 0.64 0.62 0.60 0.56 0.52 0.48 0.46 0.44 0.43 0.41 0.39 0.39 0.37 0.35 0.33 0.34 0.32 0.34 0.36 0.34 0.34 0.34 0.37 0.40 0.39 0.39 0.37 0.36 0.32 0.30 0.28 0.31 0.32 0.34 0.35 0.37 0.40 0.41 0.40 0.40 0.42 0.42 0.43 0.45 0.47 0.51 0.56 0.58 0.61 0.69 0.69 0.67 0.68 0.72 0.75 0.78 0.80 0.81 0.83 0.84 0.86 0.89 0.93 0.97 0.99 1.02 1.05 1.07
0.83 0.84 0.84 0.85 0.80 0.79 0.78 0.76 0.75 0.73 0.73 0.73 0.72 0.71 0.69 0.69 0.68 0.68 0.67 0.64 0.61 0.58 0.54 0.51 0.46 0.45 0.42 0.41 0.39 0.38 0.37 0.35 0.34 0.34 0.34 0.33 0.31 0.31 0.30 0.31 0.31 0.35 0.38 0.39 0.37 0.36 0.32 0.30 0.31 0.34 0.35 0.34 0.34 0.35 0.36 0.34 0.37 0.39 0.42 0.43 0.45 0.45 0.47 0.53 0.57 0.62 0.68 0.62 0.58 0.60 0.66 0.73 0.79 0.81 0.81 0.79 0.80 0.82 0.86 0.91 0.96 1.00 1.02 1.05 1.06
0.87 0.87 0.87 0.87 0.84 0.80 0.78 0.75 0.72 0.72 0.73 0.73 0.73 0.71 0.69 0.69 0.69 0.68 0.68 0.67 0.66 0.61 0.58 0.53 0.49 0.46 0.44 0.42 0.40 0.39 0.37 0.35 0.33 0.33 0.34 0.34 0.33 0.32 0.31 0.31 0.30 0.31 0.32 0.32 0.32 0.32 0.32 0.31 0.32 0.31 0.34 0.33 0.32 0.33 0.34 0.35 0.34 0.34 0.37 0.39 0.41 0.45 0.47 0.48 0.50 0.56 0.58 0.62 0.66 0.62 0.56 0.64 0.73 0.80 0.82 0.82 0.81 0.81 0.83 0.87 0.93 0.98 1.02 1.06 1.08
0.90 0.88 0.88 0.88 0.89 0.86 0.82 0.76 0.72 0.71 0.71 0.72 0.72 0.71 0.70 0.69 0.70 0.69 0.68 0.66 0.65 0.63 0.59 0.55 0.52 0.49 0.45 0.44 0.42 0.40 0.38 0.37 0.34 0.33 0.34 0.34 0.33 0.33 0.34 0.34 0.34 0.32 0.30 0.29 0.29 0.28 0.28 0.28 0.29 0.30 0.30 0.32 0.33 0.31 0.35 0.37 0.36 0.33 0.31 0.33 0.34 0.40 0.43 0.46 0.48 0.52 0.59 0.61 0.65 0.64 0.61 0.58 0.66 0.74 0.78 0.81 0.82 0.83 0.82 0.83 0.87 0.92 0.97 1.03 1.08
0.88 0.88 0.88 0.89 0.91 0.92 0.86 0.78 0.75 0.72 0.70 0.69 0.71 0.70 0.69 0.71 0.71 0.70 0.68 0.65 0.61 0.60 0.58 0.55 0.54 0.53 0.50 0.46 0.43 0.41 0.39 0.37 0.36 0.33 0.30 0.29 0.29 0.29 0.31 0.33 0.33 0.32 0.31 0.30 0.30 0.30 0.28 0.28 0.27 0.27 0.28 0.28 0.30 0.32 0.35 0.35 0.34 0.34 0.35 0.36 0.37 0.41 0.47 0.52 0.55 0.53 0.56 0.56 0.57 0.65 0.64 0.60 0.58 0.60 0.68 0.76 0.81 0.84 0.84 0.82 0.82 0.86 0.92 0.98 1.04
0.89 0.89 0.89 0.91 0.87 0.83 0.82 0.81 0.80 0.76 0.72 0.68 0.70 0.71 0.68 0.70 0.71 0.69 0.65 0.62 0.60 0.58 0.57 0.56 0.55 0.53 0.52 0.52 0.47 0.44 0.41 0.31 0.28 0.26 0.25 0.24 0.24 0.23 0.25 0.28 0.29 0.31 0.32 0.32 0.30 0.29 0.29 0.29 0.28 0.29 0.29 0.29 0.28 0.28 0.29 0.30 0.32 0.34 0.38 0.40 0.35 0.34 0.36 0.38 0.43 0.49 0.51 0.51 0.54 0.56 0.59 0.65 0.63 0.63 0.64 0.69 0.78 0.81 0.82 0.82 0.82 0.82 0.85 0.90 0.97
0.89 0.91 0.89 0.90 0.86 0.86 0.85 0.86 0.86 0.82 0.77 0.71 0.70 0.70 0.70 0.69 0.69 0.66 0.64 0.62 0.59 0.57 0.56 0.55 0.55 0.53 0.52 0.51 0.52 0.45 0.39 0.35 0.32 0.30 0.28 0.26 0.26 0.26 0.26 0.27 0.27 0.28 0.29 0.29 0.29 0.29 0.28 0.27 0.27 0.27 0.26 0.27 0.29 0.30 0.29 0.31 0.35 0.37 0.36 0.36 0.34 0.35 0.37 0.38 0.41 0.45 0.50 0.47 0.45 0.46 0.52 0.57 0.59 0.58 0.56 0.56 0.73 0.78 0.82 0.83 0.83 0.83 0.82 0.84 0.89
0.85 0.86 0.85 0.85 0.87 0.90 0.87 0.87 0.85 0.82 0.80 0.75 0.70 0.68 0.67 0.68 0.68 0.66 0.62 0.59 0.57 0.54 0.52 0.52 0.53 0.52 0.52 0.53 0.52 0.51 0.47 0.44 0.41 0.38 0.34 0.31 0.30 0.28 0.27 0.26 0.26 0.25 0.25 0.25 0.26 0.28 0.27 0.27 0.28 0.28 0.28 0.28 0.30 0.31 0.31 0.31 0.32 0.34 0.36 0.37 0.36 0.35 0.33 0.31 0.30 0.39 0.54 0.55 0.52 0.48 0.49 0.57 0.60 0.55 0.54 0.58 0.62 0.71 0.79 0.85 0.84 0.85 0.85 0.84 0.84
0.76 0.79 0.83 0.82 0.82 0.82 0.84 0.84 0.84 0.88 0.87 0.80 0.71 0.67 0.67 0.69 0.69 0.66 0.60 0.56 0.52 0.51 0.51 0.50 0.51 0.50 0.49 0.51 0.53 0.51 0.48 0.46 0.42 0.35 0.36 0.37 0.36 0.34 0.33 0.31 0.29 0.28 0.28 0.27 0.26 0.26 0.27 0.27 0.28 0.29 0.29 0.28 0.29 0.31 0.32 0.34 0.35 0.35 0.37 0.39 0.39 0.36 0.34 0.34 0.34 0.33 0.46 0.62 0.52 0.46 0.45 0.54 0.58 0.57 0.53 0.55 0.60 0.67 0.72 0.78 0.85 0.87 0.88 0.85 0.84
0.71 0.73 0.76 0.81 0.82 0.82 0.82 0.81 0.84 0.80 0.80 0.82 0.76 0.75 0.73 0.70 0.64 0.61 0.57 0.54 0.51 0.50 0.50 0.50 0.50 0.50 0.48 0.49 0.51 0.51 0.49 0.47 0.45 0.42 0.39 0.37 0.37 0.37 0.37 0.36 0.34 0.32 0.31 0.30 0.29 0.28 0.29 0.28 0.28 0.28 0.29 0.29 0.28 0.31 0.35 0.36 0.38 0.35 0.34 0.33 0.35 0.38 0.38 0.36 0.36 0.38 0.44 0.53 0.51 0.44 0.41 0.47 0.54 0.53 0.50 0.56 0.62 0.71 0.69 0.67 0.77 0.84 0.86 0.87 0.87
0.70 0.70 0.74 0.78 0.83 0.83 0.81 0.79 0.80 0.83 0.80 0.77 0.70 0.71 0.69 0.62 0.56 0.55 0.55 0.53 0.51 0.51 0.51 0.50 0.50 0.51 0.51 0.49 0.49 0.48 0.47 0.47 0.46 0.43 0.41 0.38 0.36 0.36 0.37 0.38 0.39 0.39 0.38 0.36 0.35 0.34 0.33 0.31 0.29 0.27 0.29 0.31 0.30 0.32 0.36 0.38 0.36 0.34 0.34 0.33 0.35 0.35 0.36 0.37 0.41 0.42 0.45 0.50 0.46 0.43 0.40 0.44 0.51 0.51 0.49 0.53 0.62 0.69 0.68 0.62 0.63 0.75 0.82 0.85 0.88
0.66 0.69 0.72 0.75 0.78 0.80 0.80 0.81 0.79 0.76 0.71 0.68 0.72 0.70 0.61 0.55 0.53 0.52 0.53 0.52 0.50 0.49 0.48 0.48 0.48 0.47 0.48 0.49 0.49 0.48 0.47 0.46 0.46 0.43 0.39 0.37 0.37 0.37 0.37 0.37 0.38 0.39 0.39 0.40 0.41 0.42 0.42 0.40 0.38 0.36 0.35 0.36 0.35 0.36 0.37 0.39 0.38 0.36 0.37 0.37 0.38 0.38 0.39 0.42 0.41 0.42 0.43 0.47 0.45 0.44 0.34 0.40 0.49 0.46 0.49 0.53 0.60 0.65 0.65 0.60 0.59 0.63 0.72 0.81 0.85
0.59 0.67 0.71 0.73 0.74 0.77 0.81 0.82 0.81 0.78 0.76 0.74 0.68 0.60 0.56 0.53 0.51 0.50 0.51 0.51 0.48 0.44 0.43 0.44 0.45 0.46 0.46 0.47 0.47 0.46 0.47 0.46 0.45 0.42 0.40 0.38 0.37 0.37 0.37 0.38 0.38 0.40 0.40 0.42 0.42 0.42 0.41 0.41 0.42 0.42 0.42 0.41 0.41 0.40 0.41 0.41 0.40 0.41 0.40 0.39 0.39 0.38 0.36 0.33 0.30 0.34 0.34 0.40 0.43 0.39 0.36 0.38 0.45 0.44 0.45 0.52 0.58 0.60 0.61 0.61 0.55 0.56 0.63 0.71 0.78
0.53 0.58 0.63 0.69 0.73 0.74 0.73 0.74 0.73 0.72 0.69 0.67 0.66 0.62 0.55 0.52 0.49 0.49 0.49 0.47 0.45 0.44 0.43 0.44 0.44 0.44 0.44 0.45 0.46 0.46 0.46 0.44 0.43 0.40 0.39 0.38 0.37 0.36 0.37 0.37 0.39 0.39 0.39 0.41 0.42 0.41 0.40 0.39 0.39 0.38 0.39 0.38 0.39 0.39 0.39 0.40 0.40 0.40 0.38 0.34 0.33 0.36 0.33 0.29 0.30 0.31 0.32 0.37 0.40 0.42 0.40 0.37 0.43 0.45 0.45 0.50 0.53 0.56 0.56 0.57 0.57 0.54 0.57 0.64 0.72
0.50 0.54 0.59 0.63 0.67 0.69 0.71 0.71 0.72 0.72 0.71 0.66 0.61 0.56 0.55 0.54 0.53 0.51 0.48 0.45 0.44 0.44 0.44 0.43 0.42 0.42 0.43 0.43 0.42 0.42 0.42 0.42 0.42 0.40 0.39 0.38 0.36 0.36 0.36 0.35 0.36 0.37 0.38 0.40 0.40 0.41 0.41 0.41 0.40 0.40 0.39 0.38 0.37 0.36 0.36 0.37 0.39 0.40 0.37 0.31 0.33 0.34 0.29 0.29 0.27 0.29 0.32 0.35 0.37 0.43 0.38 0.36 0.42 0.46 0.44 0.48 0.55 0.55 0.55 0.54 0.53 0.55 0.56 0.57 0.63
0.53 0.57 0.59 0.61 0.64 0.66 0.69 0.71 0.70 0.66 0.63 0.58 0.56 0.56 0.56 0.55 0.52 0.49 0.46 0.44 0.43 0.42 0.40 0.39 0.39 0.39 0.40 0.41 0.41 0.41 0.40 0.40 0.40 0.39 0.39 0.39 0.38 0.38 0.37 0.36 0.34 0.34 0.36 0.38 0.38 0.38 0.39 0.39 0.40 0.41 0.41 0.41 0.41 0.40 0.39 0.39 0.39 0.38 0.38 0.37 0.38 0.35 0.31 0.30 0.31 0.30 0.29 0.30 0.37 0.43 0.36 0.35 0.39 0.42 0.43 0.42 0.42 0.52 0.55 0.53 0.50 0.53 0.54 0.56 0.58
Wind_Speed
13 12 12 12 12 11 11 11 11 11 11 12 12 13 13 13 14 14 14 14 14 15 17 18 19 21 22 22 21 20 19 19 18 18 18 18 19 19 19 18 18 18 17 17 16 16 15 15 15 15 15 14 14 14 14 13 13 12 11 10 9 8 8 7 7 7 6 5 5 4 4 3 3 3 4 4 4 5 6 7 8 8 9 9 9
14 13 13 13 12 12 11 12 12 12 12 12 12 13 13 13 14 14 14 14 14 15 17 18 18 20 22 23 22 22 21 20 19 19 19 19 19 19 19 19 18 18 18 17 17 16 16 15 16 15 15 15 15 15 14 14 14 13 13 12 11 10 9 9 8 8 7 7 6 5 5 4 4 4 4 4 4 4 5 6 7 7 8 8 9
15 14 14 14 13 13 13 13 13 13 13 12 12 12 12 13 13 14 15 15 15 15 16 17 18 19 21 23 24 23 23 22 20 20 20 19 19 19 19 19 19 19 18 18 18 17 17 16 16 16 15 16 16 15 15 15 15 14 14 14 13 12 11 10 10 9 9 8 7 6 6 5 5 5 4 4 4 4 4 5 5 6 7 7 8
16 16 15 15 14 14 14 14 14 14 13 13 12 12 12 12 13 14 15 15 16 16 16 17 18 19 20 22 24 25 24 23 22 21 21 20 20 20 20 20 20 20 19 19 18 18 17 17 16 16 15 16 16 16 16 16 16 16 15 15 14 14 13 12 11 11 10 9 8 8 7 6 6 6 5 5 5 4 4 4 5 5 6 6 7
17 16 16 15 15 14 14 14 14 14 13 13 12 12 12 12 13 14 14 15 15 16 16 17 18 18 19 21 23 25 25 24 24 23 22 21 21 20 20 20 20 21 21 20 19 18 18 17 17 16 16 16 16 16 16 16 16 16 16 16 16 16 15 14 13 12 11 11 10 9 9 8 7 7 6 6 6 5 5 5 5 5 5 5 6
16 16 16 16 15 15 14 14 14 14 14 13 13 12 12 12 12 13 13 14 14 15 16 17 19 18 18 20 22 24 25 25 25 24 24 23 22 21 21 20 20 21 21 21 21 20 19 18 18 17 17 16 16 16 16 16 16 16 17 17 17 17 17 16 15 14 13 12 12 11 11 10 9 8 8 7 7 7 6 6 5 5 5 5 5
16 16 16 16 16 16 15 14 14 14 14 14 14 13 13 12 12 12 13 13 14 15 15 16 18 18 18 18 20 22 24 26 26 26 25 23 23 22 22 21 21 21 21 21 22 21 21 20 19 18 18 17 16 16 16 17 16 16 17 17 17 18 18 18 17 16 15 14 13 13 12 11 11 10 9 9 8 8 8 7 7 6 6 6 6
16 16 16 16 16 16 15 15 15 15 15 15 14 14 14 13 12 12 13 13 14 14 15 15 16 18 18 18 19 21 23 24 26 27 26 25 24 23 23 22 22 21 21 21 21 22 22 21 21 20 19 18 17 17 17 17 17 17 17 17 17 18 18 18 18 17 16 16 15 14 14 13 12 12 11 10 10 9 9 8 8 7 7 7 6
16 16 16 16 16 16 15 15 15 16 16 15 15 14 14 14 14 14 14 14 15 15 15 15 15 16 17 18 18 20 22 23 24 26 26 25 25 25 24 23 23 23 22 22 21 21 22 22 22 21 21 20 19 18 17 17 17 18 18 18 18 18 18 18 19 18 18 17 17 16 15 15 14 13 12 12 11 11 10 10 9 9 8 8 7
15 15 15 16 16 16 16 15 15 16 16 15 15 15 15 15 15 15 15 16 16 16 16 16 16 16 17 17 18 19 21 22 23 24 25 26 26 26 25 25 24 24 23 23 23 22 22 22 23 23 22 22 21 20 19 18 18 18 19 19 18 18 18 18 19 19 18 18 18 17 17 16 15 15 14 13 13 12 12 12 11 10 10 9 8
15 14 15 15 15 15 15 15 14 15 16 17 17 16 16 16 16 17 17 16 16 17 17 17 17 17 18 19 19 19 20 21 22 23 24 25 26 26 26 25 25 25 24 24 24 23 23 22 23 23 23 23 22 21 21 20 19 19 19 19 19 19 18 18 18 18 18 18 19 19 18 17 16 16 15 15 14 14 14 13 13 12 11 10 10
15 15 15 15 16 15 15 15 14 14 15 16 17 17 17 17 17 18 18 17 17 17 17 17 17 17 19 20 20 20 21 22 22 23 24 25 26 26 26 26 26 26 25 25 25 25 24 23 23 23 24 24 24 23 23 22 21 20 20 19 19 19 19 18 18 18 18 18 19 19 19 18 17 17 17 16 16 15 15 15 14 14 13 12 11
15 15 15 15 16 16 16 16 15 15 15 15 16 17 17 18 18 18 18 18 18 18 17 17 16 17 17 19 20 21 22 22 22 22 24 24 25 26 26 27 27 27 26 26 26 26 26 25 25 24 24 24 24 25 24 24 23 22 21 20 19 19 19 19 19 18 18 18 19 19 20 19 19 18 18 18 17 17 17 16 16 15 14 14 13
14 14 14 14 15 16 16 16 16 16 16 15 16 16 17 17 17 18 18 18 19 18 18 17 17 17 16 16 18 20 22 23 23 22 23 24 24 25 26 27 27 28 28 27 27 27 27 26 26 25 25 24 25 25 25 24 24 23 22 21 21 20 19 20 20 19 19 19 19 19 20 20 20 19 19 19 19 19 18 18 17 17 16 15 14
13 13 13 13 14 15 15 16 16 16 16 17 17 17 18 17 17 18 18 18 18 18 18 18 17 16 15 14 14 16 19 21 23 22 22 23 24 25 26 27 28 28 28 28 28 27 27 27 26 26 26 25 25 25 25 25 25 24 23 23 22 22 21 21 21 21 21 21 21 21 20 21 21 21 20 20 20 20 20 19 18 18 17 17 16
11 12 12 13 13 14 14 15 16 16 16 16 17 17 18 18 18 18 18 18 18 18 18 17 16 15 13 12 11 12 14 17 20 21 22 22 22 23 24 25 26 27 28 28 28 28 27 27 27 26 26 26 26 26 26 26 26 25 25 25 25 24 24 23 23 23 22 22 22 22 22 22 22 22 22 21 21 20 20 20 19 19 19 18 18
10 10 11 11 12 13 13 14 14 15 15 15 15 16 16 17 17 17 17 18 18 18 17 16 16 16 14 13 11 11 12 13 16 19 21 22 22 22 22 23 25 26 26 27 27 27 27 27 27 27 26 26 26 26 26 27 27 27 27 26 26 26 25 25 25 24 24 23 23 23 23 23 22 22 22 22 22 21 21 21 20 20 20 20 19
9 9 9 10 11 11 12 12 13 13 14 14 14 14 15 15 16 16 16 16 17 17 17 16 16 16 16 15 14 13 13 12 13 15 18 21 22 22 20 21 22 23 24 25 25 25 25 25 25 26 26 27 27 27 27 27 27 27 27 27 27 27 26 26 26 26 26 25 25 24 24 24 23 23 23 23 23 22 22 22 22 21 21 21 21
9 9 9 9 9 10 10 11 11 12 12 13 13 13 13 14 14 14 15 15 15 15 15 15 15 16 16 16 15 15 14 14 13 13 14 17 20 21 21 20 20 21 22 22 23 24 24 24 24 25 25 26 27 27 27 27 28 28 28 28 27 27 27 27 27 27 27 27 27 26 25 25 24 24 24 24 24 24 24 23 23 23 23 23 22
8 8 8 8 8 9 9 9 10 10 10 11 12 12 12 12 12 12 13 13 13 13 13 13 14 14 15 15 15 15 14 14 14 14 14 14 16 18 20 21 20 20 21 22 23 23 24 24 25 25 25 26 26 27 27 27 27 28 28 28 28 28 28 28 27 27 27 27 27 27 27 26 26 26 25 25 25 25 25 25 25 25 24 24 24
8 8 8 8 8 8 8 8 8 9 9 10 10 10 10 10 11 11 11 11 12 12 12 13 13 13 14 14 14 14 14 14 14 14 14 14 15 15 17 19 20 20 21 22 23 24 25 25 25 26 26 26 26 27 27 27 27 27 27 27 28 28 28 27 27 27 27 28 28 27 27 27 27 27 26 26 26 26 26 26 26 26 25 25 25
8 8 8 8 8 8 8 8 8 8 8 8 9 9 9 9 9 9 10 10 11 11 11 12 13 13 14 14 14 14 14 14 13 14 14 15 16 16 15 17 18 20 22 23 23 24 25 26 26 26 26 26 27 27 27 27 27 26 26 26 26 27 27 27 27 27 27 28 28 28 28 28 28 28 27 26 26 26 27 27 27 27 26 26 26
7 7 7 8 8 8 8 8 8 8 8 8 8 8 8 8 8 8 8 9 9 10 10 11 12 13 13 14 14 14 14 15 14 15 15 15 16 16 16 17 18 19 20 21 22 23 24 25 25 25 25 26 26 26 27 27 27 27 26 26 26 26 26 26 27 27 27 27 28 29 28 28 28 27 27 27 27 27 27 27 27 27 27 26 26
7 7 7 7 7 7 7 7 7 7 8 8 8 8 8 8 8 8 8 8 8 9 9 10 11 11 12 13 13 14 14 14 15 15 15 16 16 16 16 17 17 18 19 19 20 21 22 23 24 24 24 24 25 26 26 26 26 27 27 27 27 27 27 27 27 27 27 28 28 29 29 29 28 28 28 28 27 27 27 27 27 26 26 26 26
7 7 7 7 7 7 7 7 7 7 7 7 7 7 8 8 8 8 8 8 8 9 9 9 10 11 11 12 12 13 13 14 14 14 15 15 16 16 16 17 17 17 17 18 19 20 21 22 23 23 23 23 23 24 25 25 26 27 27 27 28 28 28 28 28 28 28 28 29 29 30 29 29 29 29 29 29 28 28 28 27 27 26 26 26
8 7 7 7 7 7 7 7 7 7 7 7 7 7 7 7 8 8 8 8 9 9 9 10 10 11 11 12 12 13 13 14 14 14 15 15 16 16 17 17 18 17 17 17 18 19 20 20 21 22 22 22 22 23 24 24 25 26 26 27 27 28 29 29 29 29 29 29 29 29 30 31 30 30 30 30 30 30 29 29 29 28 28 27 27
8 8 7 7 7 6 6 7 7 7 7 7 7 7 7 7 7 8 8 8 9 9 9 10 10 11 11 12 12 13 13 14 14 14 15 15 15 16 17 17 17 17 17 17 17 18 18 19 20 21 21 22 22 22 23 24 24 25 25 26 27 28 28 29 29 29 29 29 29 29 30 31 31 31 31 31 31 31 31 31 30 30 29 28 28
9 8 8 8 7 7 7 7 7 7 7 7 8 8 8 8 8 8 8 8 9 9 9 9 10 10 11 11 12 12 13 13 14 14 14 15 15 15 15 16 16 16 16 16 17 17 17 17 18 19 19 20 21 22 22 23 24 24 25 25 26 27 28 28 28 29 29 29 29 29 30 31 32 32 32 32 32 32 32 32 32 32 31 30 29
10 10 9 9 8 8 8 7 7 7 8 8 8 8 8 8 9 9 9 9 9 9 10 10 10 10 11 11 12 12 12 13 14 14 14 14 15 15 15 15 15 15 15 16 16 17 17 18 18 18 18 18 19 20 21 22 23 23 24 25 25 26 27 27 28 28 29 29 29 29 29 30 31 32 33 33 33 33 33 33 33 32 32 32 31
11 11 11 10 10 9 9 9 8 8 8 8 8 9 9 9 9 10 10 10 10 10 10 11 11 11 11 12 12 12 13 13 14 14 14 15 15 15 15 15 15 15 16 16 16 17 17 18 18 19 18 18 19 20 21 22 22 23 24 25 25 25 26 27 27 28 28 29 29 29 30 30 30 31 32 33 34 34 34 34 34 34 34 33 32
13 12 12 12 11 11 11 10 10 10 9 9 9 9 10 10 10 11 11 11 11 11 11 12 12 12 12 13 13 13 14 14 14 15 15 15 15 16 16 16 16 17 17 17 17 17 17 18 19 19 20 20 21 22 22 23 24 24 25 25 25 26 26 27 28 28 28 29 29 30 30 30 31 31 32 33 34 35 35 35 36 36 35 35 34
15 15 14 14 13 13 12 12 12 11 11 11 10 10 10 11 11 11 12 12 12 12 13 13 13 14 14 14 15 15 15 16 16 16 16 16 16 17 17 17 17 18 18 18 19 19 19 19 20 21 21 21 22 23 23 24 24 24 25 26 26 26 27 28 28 28 29 29 29 30 30 30 31 32 32 33 33 35 36 36 37 37 37 37 36
17 17 16 16 15 14 14 14 13 13 13 12 12 12 12 12 12 13 13 13 13 13 14 14 14 15 15 16 16 16 17 17 17 17 18 18 18 18 18 18 18 18 19 19 20 21 21 20 21 21 21 22 23 23 23 24 24 24 25 26 26 27 27 27 27 28 29 29 29 29 30 30 31 31 32 33 33 34 35 36 37 37 38 38 38
20 20 19 18 18 17 16 16 16 15 15 14 14 14 14 14 14 14 15 15 15 15 15 16 16 16 17 17 17 18 18 18 19 19 19 19 19 20 20 20 20 20 20 20 21 21 21 21 21 22 22 22 23 23 23 24 24 25 26 26 27 27 27 28 28 28 28 28 28 29 29 30 30 31 31 32 33 33 34 35 37 37 38 39 40
22 22 22 21 21 20 19 19 18 18 17 17 17 16 16 16 16 16 16 17 17 17 17 17 18 18 18 18 18 19 19 20 20 20 20 21 21 21 21 21 22 22 21 21 22 22 22 22 22 22 22 22 23 23 24 24 25 26 26 27 27 28 28 28 28 29 29 29 29 29 29 30 31 31 32 32 33 33 34 35 36 37 38 39 40
24 24 24 24 23 23 22 21 21 20 19 19 19 19 19 18 18 18 18 18 19 19 19 19 20 20 20 20 20 20 20 21 21 21 22 22 22 23 23 23 23 23 23 23 22 22 23 23 23 23 23 23 23 24 24 24 25 25 26 26 27 28 28 29 29 29 29 29 30 30 30 31 31 32 32 33 33 33 34 34 35 36 36 38 39
26 26 26 26 25 25 24 24 23 22 21 21 21 21 21 20 20 20 20 20 20 21 21 21 21 22 21 21 21 21 22 22 22 23 23 23 24 24 24 24 24 24 23 23 24 24 24 24 24 24 24 24 24 25 25 25 25 25 26 26 27 27 28 29 29 30 29 30 31 32 32 32 32 32 33 33 33 34 34 34 35 35 35 37 38
27 27 28 28 27 27 26 26 25 24 23 22 22 22 22 22 22 22 22 22 22 22 23 23 23 23 23 23 23 23 23 23 23 24 24 25 25 25 25 26 26 25 25 25 25 25 26 26 26 26 25 25 25 25 26 26 26 26 27 27 27 28 28 29 29 30 30 31 31 31 32 33 33 33 33 33 33 34 34 35 35 35 35 36 37
29 29 30 30 30 29 28 28 27 26 25 24 24 24 24 24 24 24 24 24 25 25 25 25 25 25 25 25 25 25 25 25 25 25 25 26 26 26 27 27 27 27 27 27 27 27 27 28 28 28 27 27 26 26 26 27 27 28 28 28 28 28 28 29 29 30 30 31 31 32 33 34 34 34 34 34 34 34 34 35 35 36 36 36 37
31 31 31 32 31 31 30 29 29 28 27 27 27 26 26 26 26 26 26 26 27 27 27 27 27 27 27 27 27 27 27 27 27 27 27 27 27 28 28 28 29 29 29 29 29 29 29 29 29 29 28 28 28 27 27 27 28 28 28 28 28 28 28 29 30 30 31 31 32 33 33 34 35 36 36 35 35 35 35 35 36 36 36 37 37
32 33 33 33 32 32 31 30 30 29 29 29 29 28 28 28 28 27 27 28 28 28 28 28 28 28 28 28 28 28 28 29 29 29 29 29 29 29 30 30 30 31 31 30 30 30 30 30 30 29 29 29 29 29 29 29 29 29 29 29 30 30 30 31 31 31 31 32 33 33 33 34 34 35 36 36 36 36 36 36 36 36 37 37 38
32 33 33 33 33 33 32 32 31 31 31 30 30 29 29 29 28 28 28 28 28 28 29 29 29 29 30 30 29 29 30 31 31 31 31 31 31 31 31 32 32 32 32 32 32 32 32 31 31 31 31 31 30 30 30 30 31 31 31 31 31 31 31 31 32 31 32 33 33 34 34 34 34 35 36 37 37 37 37 36 36 36 37 37 38
32 32 33 34 35 35 35 34 33 32 32 31 30 30 29 29 29 29 29 29 29 29 29 29 29 30 30 31 31 31 31 31 32 32 33 33 33 33 33 33 34 34 34 34 33 33 33 33 33 32 32 33 32 32 32 31 32 32 32 32 32 32 32 32 32 32 31 32 33 34 34 35 35 36 36 36 37 37 37 37 37 37 37 38 38
32 33 34 35 36 37 36 36 34 33 33 32 31 31 30 30 30 30 30 30 30 30 29 30 30 30 30 31 32 32 32 32 32 33 33 33 33 34 34 34 35 35 36 36 35 35 35 35 35 34 34 34 34 34 33 33 32 32 33 33 33 33 33 34 34 33 32 32 33 34 35 35 36 37 37 37 38 38 38 38 38 38 38 38 39
34 34 35 35 36 36 36 35 35 34 33 33 32 31 31 31 31 31 31 30 30 30 30 30 31 32 32 31 32 32 32 32 33 33 33 33 34 34 35 35 35 36 36 37 37 37 37 37 37 37 36 36 36 35 35 34 34 34 34 34 35 35 35 35 36 35 35 35 35 36 36 36 37 38 38 38 39 39 39 39 39 39 39 39 40
35 35 35 35 35 35 34 35 35 34 34 34 33 33 32 32 32 32 31 30 30 30 31 31 32 33 32 32 32 33 34 33 33 33 33 34 34 35 35 35 36 36 37 38 38 38 38 39 39 40 39 39 39 38 37 36 37 37 37 36 36 37 38 38 38 38 38 38 38 38 39 38 37 39 39 39 39 40 40 40 40 40 40 40 40
36 35 35 35 35 35 34 34 34 34 34 34 34 33 33 33 33 32 31 31 31 31 32 32 33 32 32 32 33 34 35 35 34 34 34 35 35 36 36 37 37 37 38 38 38 38 39 39 40 41 40 40 40 40 39 39 39 39 40 39 39 39 40 40 41 40 40 40 40 41 41 40 38 39 40 40 41 41 41 41 41 42 41 41 40
36 36 35 35 36 35 34 33 33 33 33 34 33 33 33 33 33 32 32 32 33 33 33 33 32 32 32 33 33 34 35 35 35 34 35 36 37 37 38 38 38 38 38 39 39 40 41 42 42 43 43 42 42 42 41 41 41 41 41 41 41 41 42 42 42 43 42 42 42 43 43 42 41 40 40 41 42 42 42 42 42 42 43 42 42
36 36 35 35 36 35 34 33 32 32 32 33 33 33 33 33 33 33 33 33 34 34 34 33 33 33 33 33 34 34 35 36 35 35 35 37 38 38 39 39 39 39 39 39 40 41 42 43 44 45 46 46 46 46 46 45 44 44 43 44 43 43 44 45 45 45 44 43 43 43 45 45 43 42 42 42 43 43 42 43 43 43 44 43 43
36 35 34 35 35 35 34 33 32 31 32 32 33 33 33 33 32 32 33 33 33 34 34 34 34 34 34 35 35 36 36 36 36 36 37 38 39 39 39 40 40 40 40 40 41 41 42 43 44 44 45 46 47 48 48 48 48 48 47 47 46 46 47 47 47 46 46 45 44 44 45 46 45 44 44 43 43 43 43 43 44 44 44 44 43
35 35 34 34 34 34 33 32 32 31 32 32 33 33 32 32 32 32 32 33 33 34 35 35 35 35 35 36 37 37 37 37 37 38 38 39 39 39 39 40 41 41 41 41 42 43 43 44 44 44 44 45 45 46 47 48 48 48 49 49 48 49 49 49 48 48 47 46 45 45 46 46 46 45 45 44 44 43 42 42 42 42 42 43 42
Wind_Direction
251 249 251 253 254 255 252 248 247 246 245 241 237 237 236 233 230 229 228 229 229 225 222 220 217 218 219 220 220 220 220 219 219 218 218 219 218 216 215 217 219 221 223 224 225 226 228 228 229 230 231 231 232 233 233 234 235 235 236 238 242 244 244 249 253 259 266 275 282 287 293 302 316 329 342 353 3 12 18 22 24 27 31 33 34
251 250 251 254 253 253 252 250 248 247 246 243 240 240 240 236 232 230 229 229 229 228 225 223 222 221 221 222 223 223 222 221 221 220 220 221 221 219 217 219 220 222 224 226 227 227 229 231 231 231 232 232 233 233 233 234 235 236 236 238 241 243 245 248 252 257 262 267 273 278 282 286 294 303 315 329 342 353 4 11 16 20 24 27 30
252 252 253 255 254 254 255 254 250 247 246 243 241 240 241 239 234 230 230 229 229 230 229 226 226 225 224 224 224 224 223 223 222 222 222 223 224 223 221 221 222 224 225 227 229 229 230 232 232 232 232 233 234 234 234 235 235 236 236 237 241 243 246 248 250 255 258 261 266 270 275 277 281 286 293 303 315 328 342 353 2 9 14 19 23
252 253 255 257 257 257 258 257 251 245 243 241 241 240 240 240 234 231 229 229 229 231 233 232 230 229 228 226 226 225 224 224 223 223 224 224 225 226 225 224 223 225 226 228 229 230 231 233 234 234 234 234 235 235 236 235 236 237 237 238 240 242 245 248 249 252 254 257 260 265 269 271 274 277 281 287 294 304 316 329 340 352 0 6 11
253 253 255 256 257 257 258 258 251 243 240 239 241 241 240 238 232 228 228 229 231 233 235 236 234 232 231 229 228 227 225 224 224 224 225 226 226 227 228 226 226 226 227 229 230 231 232 233 235 236 237 237 237 236 236 236 237 239 240 240 241 242 244 247 249 249 251 254 256 260 264 267 269 271 274 278 283 287 294 305 317 329 341 350 358
254 253 254 255 256 255 256 258 250 241 240 240 243 242 238 235 230 227 228 231 233 236 237 236 235 234 233 232 230 229 227 225 225 225 226 228 228 228 229 229 228 228 228 229 231 232 233 234 235 237 239 240 240 238 237 238 239 241 241 242 243 243 244 247 249 249 249 252 253 256 260 263 265 266 269 273 276 280 283 289 298 307 319 330 340
255 255 254 254 256 255 255 255 247 241 242 242 244 241 236 234 233 231 233 236 238 239 240 237 235 234 234 234 232 231 230 228 226 226 227 228 229 229 230 230 230 230 230 231 232 232 233 234 235 236 238 240 241 241 241 240 241 241 242 243 244 245 245 246 248 249 249 251 252 254 257 259 261 263 265 268 272 275 277 280 285 292 301 311 321
256 256 255 254 254 254 253 252 245 242 243 243 244 242 238 239 240 238 237 239 242 243 241 239 237 234 234 235 233 232 231 231 229 228 228 229 229 230 230 231 231 231 232 232 233 232 232 234 235 236 237 239 240 242 244 244 243 243 243 244 245 246 246 246 248 249 249 250 251 253 255 256 258 260 263 265 268 271 273 274 277 283 290 297 305
255 255 254 253 253 253 253 252 247 243 244 244 244 243 241 241 242 242 242 242 244 245 245 243 241 237 235 236 235 233 232 232 231 230 230 229 229 230 231 231 231 232 233 233 235 234 233 234 235 237 237 239 240 242 244 245 246 245 245 246 247 247 247 247 248 250 250 251 251 252 254 255 256 258 261 263 265 268 270 271 272 276 282 287 293
254 253 253 252 251 252 253 253 249 244 243 244 245 245 243 241 242 244 247 247 247 248 248 246 244 240 238 238 238 237 234 233 232 231 231 230 230 231 231 232 233 233 233 234 235 236 235 234 235 237 239 239 240 242 244 246 247 248 248 248 248 249 249 250 250 251 251 251 251 252 253 254 255 257 259 262 264 266 268 269 269 271 275 280 284
253 253 252 251 251 252 253 254 251 246 244 245 246 246 244 242 243 246 250 252 252 251 249 247 246 245 244 243 243 241 236 233 233 233 233 233 233 233 233 233 234 234 235 235 235 236 237 237 237 238 240 240 240 242 244 246 248 249 250 249 249 250 250 251 252 252 252 251 251 251 251 253 255 256 258 260 262 264 266 267 268 268 270 273 277
255 254 253 252 252 252 252 253 254 251 249 249 248 248 247 247 247 250 253 253 252 251 249 248 249 250 249 247 245 243 239 235 234 234 234 235 235 235 235 235 236 236 237 237 236 237 237 238 239 240 242 242 242 243 244 246 248 249 250 250 250 249 250 251 252 252 252 252 251 251 250 251 254 256 257 259 260 262 264 266 266 266 267 269 272
256 255 253 252 252 252 251 251 252 252 253 252 251 250 250 251 252 253 253 251 250 250 248 249 250 251 251 250 246 244 240 236 235 236 234 235 236 237 238 238 238 238 239 238 238 238 238 239 240 241 243 244 244 244 245 246 247 248 249 249 250 249 249 250 251 252 252 252 253 252 251 250 252 255 257 258 259 260 263 264 264 264 264 266 268
255 254 253 252 252 252 252 252 251 251 252 253 252 252 252 253 253 254 254 253 252 250 249 250 250 250 253 255 250 245 240 235 236 237 235 235 237 238 239 240 239 239 240 240 239 239 240 240 241 242 243 244 245 246 246 246 247 247 247 248 250 250 250 250 251 252 253 253 253 253 252 251 251 254 256 258 259 260 261 262 262 262 262 263 265
255 254 253 253 253 253 254 254 253 252 252 253 253 254 255 255 255 255 256 257 255 251 250 251 251 249 251 256 253 247 241 235 234 237 238 238 239 240 240 240 240 240 240 240 240 241 241 242 243 244 244 245 246 246 247 247 247 247 246 247 249 251 252 252 253 253 253 254 253 252 252 252 252 253 255 257 259 260 260 260 260 260 260 261 262
256 255 253 253 254 254 254 255 255 254 254 255 256 256 255 256 256 257 258 258 255 253 252 251 248 244 245 250 251 247 241 237 235 237 240 240 239 240 240 239 240 240 239 240 241 242 243 244 245 245 246 247 247 247 247 248 248 247 246 247 248 250 252 252 253 254 255 255 255 253 253 253 253 253 255 256 258 259 259 259 259 258 258 259 261
257 257 254 254 254 254 255 256 257 257 257 257 258 258 257 257 257 258 259 258 256 255 254 252 246 243 244 248 251 251 245 241 240 239 239 238 239 242 241 239 239 239 238 239 240 242 243 244 245 246 247 248 249 248 247 247 247 247 247 247 247 249 251 252 253 254 255 256 256 255 254 254 254 254 255 255 257 257 258 257 257 257 257 258 259
258 258 257 255 255 256 256 256 257 257 257 258 258 258 259 258 258 259 260 260 258 255 254 253 249 245 247 250 253 255 252 246 246 244 241 239 239 240 239 239 239 238 237 238 239 240 241 243 245 246 248 248 248 249 249 248 248 248 249 248 248 249 250 251 252 253 254 256 257 257 256 255 255 255 255 255 255 256 257 256 256 256 256 257 257
257 258 258 258 257 257 257 257 257 257 256 256 257 257 257 258 259 260 259 260 259 255 252 252 249 246 247 249 251 253 252 249 249 249 246 242 239 237 237 239 240 238 237 238 239 240 241 242 244 246 248 249 248 248 249 249 249 249 250 250 250 250 251 252 252 253 254 255 256 258 258 257 256 255 255 254 254 255 255 256 256 256 256 256 257
257 257 257 258 258 258 258 258 257 257 256 255 256 257 256 256 257 258 257 258 258 254 251 250 248 247 246 246 247 248 248 249 250 250 249 247 242 238 237 239 240 239 238 239 240 241 242 243 245 248 249 250 250 250 249 249 250 250 250 250 251 251 252 252 253 254 254 255 256 257 257 257 256 256 255 255 254 254 254 255 256 256 256 256 257
255 254 254 255 257 258 259 258 258 258 257 256 257 258 258 257 257 257 256 256 256 255 253 252 251 251 250 250 249 247 246 247 248 249 249 248 245 242 241 241 241 241 240 242 244 245 245 246 247 250 251 250 250 250 250 249 249 250 250 250 251 251 251 252 253 253 254 254 255 255 257 257 256 256 256 256 255 254 254 254 255 255 255 255 256
254 253 252 254 255 257 257 257 257 257 257 257 258 260 261 260 259 258 257 255 254 254 253 253 253 253 253 255 256 254 250 248 249 251 251 251 249 248 248 247 246 245 245 247 248 248 248 248 249 252 252 251 250 250 249 249 249 250 251 251 251 251 251 252 253 253 254 254 254 255 256 257 257 256 256 256 256 255 255 254 254 254 255 255 256
254 255 254 254 255 255 256 255 255 256 257 258 259 260 261 261 260 259 258 257 255 254 253 253 253 253 253 254 255 256 255 252 252 253 252 252 252 251 251 251 252 251 251 251 250 249 250 250 250 252 253 252 251 249 248 248 249 251 252 252 252 252 253 253 253 254 255 255 255 254 255 256 256 256 256 256 256 256 255 254 253 253 254 254 255
253 255 255 255 255 254 254 254 255 255 255 256 258 259 260 260 260 259 259 258 257 256 256 255 254 254 254 254 255 256 256 256 256 254 253 252 252 252 252 253 254 254 253 253 251 250 251 251 250 251 252 252 252 249 248 249 249 250 252 252 252 253 254 255 255 255 257 258 257 255 254 255 255 255 256 256 256 255 255 254 253 253 253 253 253
249 252 254 254 255 254 254 254 255 254 254 255 256 258 259 260 261 260 259 258 258 257 257 258 258 257 257 256 257 257 257 258 259 258 256 255 253 252 253 254 255 255 255 253 252 251 250 250 251 252 253 253 252 250 249 250 251 250 251 252 253 254 255 256 256 257 259 260 259 256 255 254 254 255 255 256 255 255 255 254 252 253 254 254 254
247 249 252 254 254 254 254 253 253 252 253 254 256 257 258 259 260 261 261 260 260 259 259 260 260 260 259 258 258 258 258 259 260 260 259 259 257 256 256 257 257 257 256 254 253 252 251 251 253 254 254 254 254 252 251 252 253 252 251 253 255 256 256 257 257 258 259 260 260 258 256 255 254 254 254 255 255 254 254 253 252 252 254 255 255
247 248 251 254 255 254 252 252 252 253 253 254 255 258 259 260 261 261 263 264 263 263 263 262 262 262 261 260 259 259 259 259 260 260 260 261 260 260 260 260 260 260 259 257 256 255 254 254 255 254 254 254 254 254 254 255 255 254 254 255 256 257 257 258 258 258 259 260 260 260 258 256 254 254 253 254 255 254 253 253 253 252 252 254 256
248 249 252 253 254 255 254 253 253 254 255 256 256 258 260 261 263 264 265 266 267 267 266 265 264 264 263 262 261 260 260 260 261 261 261 261 261 262 261 260 261 261 260 260 260 258 258 258 257 256 255 255 256 256 257 257 256 256 257 257 258 258 258 258 259 259 259 260 260 260 259 256 255 254 253 253 254 254 254 253 253 252 252 253 256
250 252 253 253 253 255 256 256 255 256 257 258 259 259 260 261 262 264 266 267 269 270 270 269 267 267 267 265 263 262 262 262 261 262 262 261 261 261 260 259 259 260 261 261 259 259 260 261 261 260 259 258 258 259 260 259 258 260 261 260 260 261 260 259 260 261 261 260 260 260 260 258 255 254 254 253 253 255 254 253 253 253 252 253 255
252 254 254 254 254 255 256 257 258 259 259 260 261 261 262 263 262 263 264 266 267 268 270 271 271 270 270 269 268 266 265 265 263 262 262 262 261 261 261 260 259 259 261 262 261 260 261 261 261 262 262 261 261 262 262 261 262 264 263 262 262 263 263 263 262 262 262 261 261 260 260 259 257 256 255 254 253 254 254 254 253 253 253 253 254
252 253 253 254 254 254 256 257 258 260 261 262 263 265 266 267 267 267 267 266 266 266 267 269 270 271 271 271 271 270 270 269 266 265 264 263 262 261 261 260 260 260 261 262 262 262 262 263 263 264 264 265 264 264 263 263 263 264 264 263 263 264 266 265 264 263 263 263 262 261 260 259 259 257 256 255 254 254 254 254 253 253 253 254 254
252 252 253 253 253 254 255 255 257 259 261 263 264 266 268 269 270 270 270 269 269 268 268 268 269 270 271 271 271 271 271 269 266 266 265 264 264 263 262 261 261 262 262 262 262 263 263 265 265 265 266 266 266 265 265 264 264 263 264 264 264 265 267 267 266 264 264 264 263 263 262 261 260 259 258 258 256 255 254 254 254 253 253 253 254
254 252 253 253 253 254 254 255 257 258 260 262 265 266 268 269 271 272 272 271 271 270 270 269 269 270 271 271 271 272 272 270 267 265 263 263 264 263 262 263 262 263 263 263 263 264 265 265 265 266 267 267 267 267 266 266 265 265 265 265 265 266 267 267 267 265 264 264 264 264 263 263 262 261 261 260 258 257 256 255 254 254 253 253 253
256 255 254 255 255 256 256 256 258 260 261 262 265 267 268 269 272 273 273 272 271 271 271 271 271 272 272 272 272 272 272 271 270 268 265 265 264 263 263 264 264 265 265 266 266 266 267 267 267 267 268 268 267 268 268 267 267 267 267 266 267 267 267 267 267 267 265 265 265 265 264 264 263 263 263 262 260 259 258 257 256 255 254 253 253
258 257 256 256 256 257 257 258 259 260 261 263 265 268 268 269 272 274 275 274 273 273 272 272 273 273 273 273 272 272 271 271 271 270 268 268 268 267 266 266 266 266 267 268 268 268 269 269 270 270 269 269 269 269 269 269 269 269 268 268 268 268 268 267 267 267 265 265 266 266 265 265 264 264 264 264 262 261 259 258 257 256 255 254 253
258 259 257 256 256 256 257 257 258 260 261 263 265 267 269 270 272 273 274 274 274 274 274 275 275 275 275 274 273 272 271 271 271 270 268 268 269 269 268 268 267 266 267 267 268 268 268 269 271 271 271 271 271 271 271 271 271 270 270 269 269 269 269 268 267 267 265 265 266 266 266 266 266 265 265 265 264 262 261 260 259 258 256 255 254
258 257 257 256 255 254 254 255 256 258 261 263 264 266 269 271 272 273 274 274 274 275 275 276 276 276 276 275 275 274 273 272 271 270 269 269 269 269 268 268 267 266 265 265 266 266 267 268 269 271 271 272 273 273 273 273 273 272 271 270 269 269 269 269 269 268 266 266 267 266 265 265 266 265 265 265 265 264 263 261 260 259 258 256 255
257 256 256 255 254 253 254 254 255 258 260 263 264 266 269 271 272 273 274 274 274 274 275 276 276 277 277 276 275 275 274 274 272 271 270 270 269 269 268 267 266 266 265 265 266 266 266 267 268 269 270 270 271 272 273 273 273 273 273 272 271 270 269 269 269 269 269 269 269 268 266 265 265 265 265 265 265 265 264 263 262 261 259 258 256
257 257 257 256 255 254 254 255 256 258 260 261 264 266 268 270 271 271 272 274 274 274 274 275 275 276 276 276 276 275 274 274 273 273 272 271 269 268 267 266 266 265 265 265 266 266 267 268 268 269 269 270 270 270 271 272 272 273 273 273 273 272 270 270 270 270 270 270 270 270 269 267 266 266 266 266 266 265 265 264 263 262 261 259 257
259 259 258 257 256 254 254 255 256 258 259 261 263 265 267 269 271 272 272 273 275 274 274 273 274 275 275 275 275 275 274 274 274 273 272 272 270 269 268 267 266 265 265 265 265 266 266 267 268 269 269 270 270 271 271 271 271 271 272 271 272 272 272 272 272 272 272 272 271 271 271 270 268 266 265 266 265 265 265 265 264 263 262 260 258
261 260 259 257 255 254 254 255 256 257 260 262 263 265 266 268 270 273 274 274 275 275 274 273 274 275 275 274 274 275 274 274 273 272 272 271 271 270 269 268 267 266 265 265 265 266 266 267 267 268 269 270 271 272 272 272 271 272 272 272 272 273 273 273 273 273 273 273 273 272 272 271 270 268 267 266 265 264 264 264 264 264 262 261 259
263 261 258 256 255 254 254 255 255 257 260 263 263 264 267 268 270 272 274 274 275 275 275 274 274 275 275 274 274 274 275 274 272 272 272 271 270 270 270 269 268 267 266 265 266 266 267 267 268 268 269 270 271 272 272 272 273 273 273 273 273 274 274 274 274 274 274 274 274 274 273 273 272 271 269 267 265 265 265 264 263 264 263 261 260
261 259 258 257 256 255 255 256 256 257 259 261 262 264 266 268 270 272 273 274 274 275 275 275 275 275 275 274 273 274 275 274 273 272 271 271 271 270 270 269 268 267 266 267 267 267 268 268 269 269 270 271 272 272 272 272 273 273 273 273 273 274 274 274 274 275 275 275 275 275 275 274 273 272 270 268 267 266 265 264 264 264 263 262 261
260 259 259 259 257 255 255 256 257 258 258 260 262 264 265 268 270 272 273 273 274 274 275 275 275 276 276 274 272 274 276 276 275 274 273 271 271 271 271 270 269 267 267 267 267 268 269 269 270 270 271 272 272 272 272 273 273 273 273 273 273 273 274 274 275 275 276 277 277 277 276 275 274 273 271 270 268 266 265 265 264 263 263 263 262
261 260 260 259 258 256 254 254 255 257 258 259 261 263 265 268 271 272 273 273 274 274 275 275 275 276 277 276 273 273 275 275 275 275 274 273 273 272 272 271 270 268 267 267 268 268 269 270 270 270 271 272 272 272 272 273 273 273 274 274 274 274 273 273 275 276 276 277 278 277 276 275 274 273 272 270 269 267 266 265 264 263 263 262 262
263 261 260 259 258 256 254 253 254 256 257 258 260 262 264 268 271 272 273 273 274 275 275 275 276 276 277 276 274 273 274 275 275 274 274 275 275 274 273 272 271 270 269 268 269 269 269 270 270 271 271 271 271 271 272 272 272 273 273 274 274 274 274 274 275 276 276 276 277 277 276 275 273 272 272 270 269 267 267 266 265 263 262 262 262
262 261 260 259 258 257 255 254 254 256 256 257 259 262 264 267 269 271 272 272 274 276 276 276 277 277 276 275 275 274 274 274 275 274 275 276 276 275 274 273 272 271 270 269 269 269 270 270 270 271 271 270 270 270 271 271 271 272 272 273 274 275 275 275 275 275 275 274 274 275 275 274 272 271 271 270 269 268 267 266 265 263 262 261 261
260 259 259 258 256 255 254 253 254 256 256 257 259 262 265 267 268 270 271 272 273 274 275 277 277 276 275 274 275 276 275 275 275 274 275 276 276 276 275 274 273 272 270 270 269 270 270 270 270 271 270 270 270 270 270 270 270 271 272 272 273 274 274 274 274 274 274 274 273 273 273 273 272 270 270 269 269 268 267 266 265 263 262 261 261
258 257 257 256 254 253 253 253 254 256 256 257 260 263 265 266 268 270 272 272 272 273 275 276 277 276 274 274 275 277 276 276 275 276 276 276 276 276 276 275 274 273 271 271 270 270 270 270 271 271 271 271 270 270 270 269 269 270 271 272 272 273 273 274 274 274 274 274 274 272 272 272 271 270 270 269 268 268 267 265 264 263 262 261 260
258 256 255 253 252 251 251 251 253 255 257 258 260 263 264 265 268 271 273 273 273 274 275 276 276 276 274 273 274 275 276 276 276 277 278 278 277 277 276 276 275 273 272 272 271 271 271 271 271 272 272 271 271 270 270 269 269 269 269 270 271 272 273 273 274 274 274 274 273 272 272 272 271 269 269 268 267 266 266 265 264 262 261 260 259
257 255 253 251 249 248 249 250 252 255 257 259 260 262 263 265 268 272 274 274 275 276 277 276 276 275 274 274 274 274 274 275 276 277 278 278 278 278 277 276 275 274 273 272 272 272 272 272 272 272 272 272 271 271 270 269 269 269 269 269 270 271 272 273 273 274 274 274 273 272 271 271 270 269 267 267 266 265 264 263 263 262 260 259 257